TANUSHA-3 (43597 NORAD) Tracking and Keplerian Element Data

This shows tracking and keplerian element data for the satellite.

Feedback or suggestion? Click here.




ElementValue
Catalog43597
NameTANUSHA-3
Epoch Orbit1400
Epoch Day317.7121956
Epoch Year2018
RAAN352.6775
Inclination51.6387
Eccentricity0.0004597
Argument of Perigee32.4479
Mean Anonmoly327.6795
Mean Motion15.56315272
Decay Rate0.00011443
L11 43597U 98067PJ 18317.71219560 .00011443 00000-0 16609-3 0 9997
L22 43597 51.6387 352.6775 0004597 32.4479 327.6795 15.56315272 14000

Live tracking and technical data element details for TANUSHA-3 (NORAD 43597). TANUSHA-3 can be tracked NOW for your location showing map with azimuth and elevation plus other details from your city location.

Track the satellite on the map from your city or location and see movement details for azimuth, elevation, latitude, longitude, range, height, and movement on the map or in text.







IsCatalogInMostPopularTable: catalog: 43597, numindb: 32
Update: records affected: 1



GetName: 43597 TANUSHA-3

Hit Count: updated at: Thu, 15 Nov 2018 04:01:08 GMT